{"data":{"norad_id":52103,"epoch":"2026-09-19T18:00:08.007552Z","epoch_age_seconds":120243,"freshness":"FRESH","line1":"1 52103U 22029R   26262.75009268 -.00000151  00000+0  66694-5 0  9994","line2":"2 52103  53.1588 272.8732 0001288  89.6544 270.4606 15.34383819250286","mean_motion":15.34383819,"eccentricity":0.0001288,"inclination_deg":53.1588,"raan_deg":272.8732,"arg_perigee_deg":89.6544,"mean_anomaly_deg":270.4606,"bstar":6.6694e-6,"rev_number":25028,"period_min":93.848747762375,"perigee_km":461.87022755432,"apogee_km":463.63244038915,"semimajor_km":6840.8883339717,"source":"CELESTRAK","updated_at":"2026-09-20T09:00:39.986331Z"}}